Location: Newark
(26.8229°N, 81.7649°W)
Time: 16:14:11
(UTC+00:00)

Hubble Space Telescope - Pass Details

Date: 30 January 2020
Orbit: 536 x 540 km, 28.5° (Epoch: 16 February)

Event Time Altitude Azimuth Distance (km) Brightness Sun altitude
Exits shadow 10:20:07 35° 161° (SSE) 868 2.0 -25.4°
Maximum altitude 10:20:12 35° 158° (SSE) 867 2.0 -25.4°
Drops below altitude 10° 10:23:58 10° 92° (E) 1,777 4.5 -24.5°
Sets 10:26:21 0° 83° (E) 2,669 5.6 -24.0°
